Погода Черновцы

Погода Черновцы : погода сейчас, прогноз погоды и архив. Всё, что Вы хотите узнать о погоде Черновцы!

Поиск расширенной информации на нашем сайте:

Другие новости

Новости СМИ2

Главная страница сайта

Новости сайта

03.07.2017

Напоминаем, что на нашем специализированном сайте Метеоцентр.Азия вы можете получить высокодетализированные автоматические прогнозы погоды по пунктам России, СНГ и мира в авиационном формате (включающие направление и скорость ветра, видимость, явления погоды, количество и форму облачности, нижнюю и верхнюю границу облачности).


Погода Черновцы - сегодня

Время (UTC), дата Ветер
(°,м/с) 
Видим.   Явления Облачность Т
(°С)
Тd
(°С)
f(%) Тe
(°С)
Pmin
(гПа)
dP
(гПа)
Po
(мм)
O2
(г/м3)
Тmin Tmax R s Состояние
почвы
09 17.06.18 310 (СЗ) 8000 м  слаб. ливневой дождь  10/10 120 м кучево-дожд. 
[Cb calv]
+16.3 +15.8 97 +27  1013.2  -0.1  738  277           
12 17.06.18 310 (СЗ) 5000 м  слаб. ливневой дождь  10/10 330 м кучево-дожд. 
[Cb calv]
+16.5 +15.8 96 +27  1013  -0.2  738  277           
15 17.06.18 300 (СЗ) 50000 м  {ливн. осадки}  10/10 300 м кучево-дожд. 
[Cb calv]
+17 +15.8 93 +28  1012.2  -0.7  738  276           
18 17.06.18 320 (СЗ) 8000 м  слаб. ливневой дождь  10/10 200 м кучево-дожд. 
[Cb calv]
+16.3 +16 98 +27  1013  0.7  738  277    +17.2     
21 17.06.18 330 (СЗ) 6000 м  в посл. час ливневой дождь  8/5 1080 м средняя 
[Sc|Ac trans]
+15.8 +15.8 100 +27  1013  -0.1  738  278           
00 18.06.18 320 (СЗ) 3500 м  дымка{ливн. осадки}  10/10 100 м 
[St]
+15.9 +15.6 98 +26  1012.7  -0.3  738  278           
03 18.06.18 тихо ()   13000 м    9/6 660 м средняя 
[Sc|Ac trans]
+16.4 +16.1 98 +28  1012.8  0.2  738  277           
06 18.06.18 тихо ()   30000 м  {ливн. осадки}  10/10 200 м кучево-дожд. 
[Cb cap]
+19.1 +18.8 98 +36  1013.6  1.1  739  274  +15.5    0.7     
09 18.06.18 090 (В) 50000 м    9/3 1500 м кучево-дожд., средняя 
[Cb cap|Ac trans]
+23.4 +17.8 71 +38  1013.9  0.7  739  270           
12 18.06.18 120 (ЮВ) 50000 м    9/4 1000 м кучево-дожд., средняя 
[Cb calv|Ac trans]
+23.8 +16.3 63 +35  1013.5  -0.4  739  270           
15 18.06.18 060 (СВ) 50000 м    6/0 средняя 
[Ac trans]
+25.6 +14.7 51 +34  1013.3  -0.1  739  269           
18 18.06.18 310 (СЗ) 30000 м    6/0 верхняя 
[Ci fib]
+23.5 +15.8 62 +34  1014.3  0.8  740  271    +26.2       
21 18.06.18 240 (ЮЗ) 30000 м  зарница{гроза}  8/4 1000 м кучево-дожд., средняя 
[Cb calv|Ac trans]
+20 +17.7 87 +34  1016.5  1.9  741  274           
00 19.06.18 310 (СЗ) 25000 м  {гроза}  3/0 средняя 
[Ac trans]
+18.2 +17.5 96 +33  1016.7  741  276           
03 19.06.18 300 (СЗ) 20000 м    ясно 
+16.9 +16.4 97 +30  1017.7  0.8  742  278           
06 19.06.18 330 (СЗ) 30000 м    ясно 
+20.9 +18.5 86 +37  1018  0.7  742  273  +16.4         
09 19.06.18 300 (СЗ) 50000 м    4/3 1000 м верхняя 
[Cu hum|Ci fib]
+24.9 +18.3 67 +40  1018  0.4  743  270           
12 19.06.18 330 (СЗ) 50000 м    6/6 1500 м 
[Cu hum]
+26.7 +17.2 56 +40  1017.2  -0.6  742  269           
15 19.06.18 020 (С) 50000 м    4/4 1500 м 
[Cu hum]
+27.1 +15.8 50 +38  1016.4  -0.8  741  268           
18 19.06.18 тихо ()   40000 м    5/3 1500 м верхняя 
[Cu hum|Ci fib]
+25.7 +17.1 59 +39  1017.2  0.7  742  269    +28.6       
21 19.06.18 300 (СЗ) 25000 м    3/0 верхняя 
[Ci fib]
+22.5 +17.9 75 +37  1018.7  1.1  743  272           
00 20.06.18 310 (СЗ) 17000 м    4/4 1500 м 
[Sc]
+20.3 +18.7 91 +36  1019.8  0.9  743  274           
03 20.06.18 320 (СЗ) 10 км    8/8 1500 м кучево-дожд. 
[Cb calv]
+19.2 +18.6 96 +37  1020.7  0.8  744  276           
06 20.06.18 290 (З) 25000 м  в посл. час ливневой дождь  9/9 1000 м кучево-дожд. 
[Cb calv]
+20.9 +17.7 82 +35  1021.4  0.8  745  275  +19.2    0.0     
09 20.06.18 330 (СЗ) 40000 м    4/3 <0100 м средняя, верхняя 
[Ac trans|Ci fib]
+25.4 +16.3 57 +37  1021.2  0.2  745  271           
Время (UTC), дата Ветер
(°,м/с) 
Видим.   Явления Облачность Т
(°С)
Тd
(°С)
f(%) Тe
(°С)
Pmin
(гПа)
dP
(гПа)
Po
(мм)
O2
(г/м3)
Тmin Tmax R s Состояние
почвы

Для получения пояснительной информации подведите курсор к названию столбца.

ПОГОДА Черновцы - архив

Всё, что Вы хотите узнать о погоде Черновцы - удобно и подробно!

Выберите нужную дату (начиная с 1 января 2015* года) и нажмите кнопку "Найти".
Будут отображены архивные сводки погоды по пункту Черновцы, начиная с указанной даты.


Отображать данные в формате CSV (для использования в таблицах Excel)


Внимание! Наш архив погоды предназначен исключительно для личного некоммерческого использования в познавательных целях. Если Вам необходимы официальные справки о состоянии погоды (для производственных, юридических, коммерческих и т.п. целей), обращайтесь в органы Росгидромета.

*Примечание: данная дата относится к архиву по метеостанциям СССР (Россия, СНГ, Балтия).
Архив по метеостанциям Зарубежной Европы и Азии (кроме Китая) хранится 10 дней, по другим регионам земного шара (Китай, Африка, Америка, Австралия, Океания) - 1 день.

Черновцы - район местоположения метеостанции


Название, широта, долгота, высота метеостанции:
Черновцы 48.4°ш. 25.9°д. 246 м над ур. моря [Украина]

Дополнительная информация

В oтличие oт бoльшинства пoгoдных сайтoв мы публикуем пoдрoбную метеoинфoрмацию в детальнoм прoфессиoнальнoм фoрмате.

Характеристики температуры и влажнoсти вoздуха измеряются на высoте 2 м в тени вдали oт зданий и деревьев.
Скoрoсть ветра измеряется на высoте 10 м (на урoвне рoста челoвека скoрoсть ветра ниже в 1.5-2 раза). Если метеoстанция нахoдится в гoрoде или в лесу, тo скoрoсть ветра занижена на 2-4 м/с пo сравнению с oткрытым местoм. Скoрoсть ветра над акватoриями крупных рек и oзёр, а также на вершинах хoлмoв на 2-5 м/с выше, чем в oбычных услoвиях.
Атмoсфернoе давление в разных тoчках местнoсти мoжет значительнo oтличаться oт давления на метеoстанции, в зависимoсти oт услoвий рельефа (при пoдъёме на 10 м давление пoнижается примернo на 1 мм рт.ст.).